Location: Flippin
(36.2774°N, 92.5927°W)
Time: 00:27:30
(UTC+00:00)

Envisat - Visible Passes

Search period start: 08 October 2024 00:00
Search period end: 18 October 2024 00:00
Orbit: 762 x 764 km, 98.3° (Epoch: 07 October)

Date Brightness Start Highest point End Pass type
(mag) Time Alt. Az. Time Alt. Az. Time Alt. Az.
08 Oct 5.0 09:41:38 10° N 09:43:02 19° N 09:43:02 19° N visible
09 Oct 5.5 09:04:06 10° NNE 09:04:58 15° NNE 09:04:58 15° NNE visible
09 Oct 5.2 10:45:04 10° NW 10:45:07 10° NW 10:45:07 10° NW visible
10 Oct 5.0 10:06:01 10° N 10:07:04 15° NNW 10:07:04 15° NNW visible
11 Oct 5.3 09:28:04 10° N 09:29:00 16° N 09:29:00 16° N visible
12 Oct 5.8 08:50:44 10° NNE 08:50:57 11° NNE 08:50:57 11° NNE visible
12 Oct 5.2 10:30:48 10° NNW 10:31:05 11° NNW 10:31:05 11° NNW visible
13 Oct 5.2 09:52:17 10° N 09:53:01 14° N 09:53:01 14° N visible
14 Oct 5.6 09:14:33 10° NNE 09:14:57 12° NNE 09:14:57 12° NNE visible
15 Oct 5.3 10:16:48 10° NNW 10:17:02 11° NNW 10:17:02 11° NNW visible
16 Oct 5.5 09:38:37 10° N 09:38:58 12° N 09:38:58 12° N visible
